WICK current weather conditions

sailwx.info

Wind from 310 at 16 knots

Air temperature -0.0° C
Visibility: greater than 5.4 NM
Dewpoint -2.0° C

Last reported at 2015-Apr-01 20:20 UTC.
Time now 2015-Apr-01 22:35 UTC

Location: N 58°27' W 003°05'.
View on Google Maps.

See reports from other nearby stations

  
Tides and Currents Weather Stations Pressure Air Temp Water Temp Dewpoint Dewpoint Depression Visibility Wind Speed Wind Dir Waves Ship Positions
date/time (UTC)wind fromknots sea level pressurealtimeterstation pressurevisibilityair tempwater tempwave heightnotes
2015-Apr-01 21:20 300 15 5.4-0.0
2015-Apr-01 20:50 320 17 5.4-0.0
2015-Apr-01 20:20 310 16 5.4-0.0
2015-Apr-01 19:50 310 18 5.4-0.0 Showers in the vicinity.
2015-Apr-01 19:20 330 18 5.4-0.0 Showers in the vicinity.
2015-Apr-01 18:50 320 12 5.4-0.0 Showers in the vicinity.
2015-Apr-01 18:20 330 24 2.2-1.0 Light snow showers.
2015-Apr-01 17:50 330 20 5.4 1.0 Showers in the vicinity.
2015-Apr-01 17:20 300 24 gusting 36 5.4-0.0 Showers in the vicinity.
2015-Apr-01 16:20 320 25 5.4 3.0 Showers in the vicinity.
2015-Apr-01 15:50 290 17 5.4 3.0 Showers in the vicinity.
2015-Apr-01 15:20 310 22 5.4 5.0 Showers in the vicinity.
2015-Apr-01 14:50 300 15 5.4 3.0 Showers in the vicinity.
2015-Apr-01 14:20 290 18 5.4 5.0 Showers in the vicinity.
2015-Apr-01 13:50 280 19 5.4 4.0 Showers in the vicinity.
2015-Apr-01 13:20 300 15 5.4 6.0 Showers in the vicinity.
2015-Apr-01 12:50 280 14 5.4 2.0 Showers in the vicinity.
2015-Apr-01 12:20 320 15 5.4 3.0 Showers in the vicinity.
2015-Apr-01 11:50 320 19 5.4 4.0 Showers in the vicinity.
2015-Apr-01 11:20 310 20 5.4 4.0 Showers in the vicinity.
2015-Apr-01 10:50 310 17 5.4 4.0 Showers in the vicinity.
2015-Apr-01 10:20 330 12 5.4 2.0 Showers in the vicinity.
2015-Apr-01 09:50 320 13 5.4 1.0 Showers in the vicinity.
2015-Apr-01 09:20 330 13 5.4 3.0 Showers in the vicinity.
2015-Apr-01 08:50 330 15 5.4 3.0 Light rain showers.
2015-Apr-01 08:20 290 17 5.4 3.0 Showers in the vicinity.
2015-Apr-01 07:50 300 19 5.4 2.0 Light rain showers.
2015-Apr-01 07:20 290 15 gusting 25 5.4 2.0 Light rain showers.
2015-Apr-01 06:50 300 17 5.4-0.0
2015-Apr-01 06:20 290 24 5.4-0.0 Showers in the vicinity.
2015-Apr-01 05:50 280 18 5.4 1.0
2015-Apr-01 05:20 280 14 5.4 1.0
2015-Apr-01 04:50 270 16 5.4-0.0
2015-Apr-01 04:20 260 13 5.4-0.0
2015-Apr-01 03:50 270 13 5.4-0.0
2015-Apr-01 03:20 270 16 5.4-0.0
2015-Apr-01 02:50 280 13 5.4 1.0
2015-Apr-01 02:20 290 7 5.4-0.0
2015-Apr-01 01:50 280 7 5.4-0.0
2015-Apr-01 01:20 300 6 5.4-0.0
2015-Apr-01 00:50 320 11 5.4 1.0
2015-Apr-01 00:20 290 9 5.4-0.0
2015-Mar-31 23:50 270 9 5.4 1.0
2015-Mar-31 23:20 300 11 5.4 1.0
2015-Mar-31 22:50 320 15 5.4 1.0
2015-Mar-31 22:20 320 17 5.4 2.0
2015-Mar-31 21:50 320 16 5.4 2.0
2015-Mar-31 21:20 330 23 5.4 2.0
2015-Mar-31 20:50 330 20 5.4 2.0
2015-Mar-31 20:20 320 22 5.4 3.0
2015-Mar-31 19:50 320 26 5.4 3.0
2015-Mar-31 19:20 310 22 5.4 2.0
2015-Mar-31 18:50 300 20 5.4 3.0 Showers in the vicinity.
2015-Mar-31 18:20 300 19 5.4 2.0 Showers in the vicinity.
2015-Mar-31 17:50 300 20 5.4 4.0
2015-Mar-31 17:20 290 17 5.4 3.0 Showers in the vicinity.
2015-Mar-31 16:50 280 17 5.4 3.0 Showers in the vicinity.
2015-Mar-31 16:20 270 14 4.3 2.0 Showers in the vicinity.
2015-Mar-31 15:50 290 19 4.3 2.0 Light rain showers.
2015-Mar-31 15:20 330 25 4.3 3.0 Light rain showers.
2015-Mar-31 14:50 280 24 gusting 34 5.4 5.0 Showers in the vicinity.
2015-Mar-31 14:20 290 20 5.4 5.0 Showers in the vicinity.
2015-Mar-31 13:50 300 19 5.4 3.0 Light rain showers.
2015-Mar-31 13:20 280 20 5.4 3.0 Showers in the vicinity.
2015-Mar-31 12:50 290 22 5.4 4.0 Light rain showers.
2015-Mar-31 12:20 280 19 5.4 3.0 Showers in the vicinity.
2015-Mar-31 11:50 270 19 2.2 2.0 Showers in the vicinity.
2015-Mar-31 11:20 280 19 5.4 4.0 Showers in the vicinity.
2015-Mar-31 10:50 280 20 5.4 4.0 Showers in the vicinity.
2015-Mar-31 10:20 290 19 5.4 4.0 Showers in the vicinity.
2015-Mar-31 09:50 270 13 5.4 2.0 Showers in the vicinity.
2015-Mar-31 09:20 280 25 5.4 1.0 Light rain showers.
2015-Mar-31 08:50 290 17 5.4 2.0 Showers in the vicinity.
2015-Mar-31 08:20 290 17 5.4 2.0 Showers in the vicinity.
2015-Mar-31 07:50 290 14 3.2 1.0 Light snow showers.
2015-Mar-31 07:20 280 8 5.4 1.0 Showers in the vicinity.
2015-Mar-31 06:50 300 15 4.3 1.0 Light rain showers.
2015-Mar-31 06:20 280 12 5.4 1.0 Showers in the vicinity.
2015-Mar-31 05:50 290 22 5.4 1.0 Showers in the vicinity.
2015-Mar-31 05:20 310 19 5.4 2.0
2015-Mar-31 04:50 300 14 5.4 2.0
2015-Mar-31 04:20 310 13 5.4 2.0
2015-Mar-31 03:50 320 17 5.4 2.0
2015-Mar-31 03:20 330 16 5.4 2.0
2015-Mar-31 02:50 330 14 5.4 3.0
2015-Mar-31 02:20 350 16 5.4 3.0
2015-Mar-31 01:50 350 19 5.4 3.0
2015-Mar-31 01:20 350 11 4.3 3.0 Light drizzle.
2015-Mar-31 00:50 010 12 5.4 3.0 Drizzle.
2015-Mar-31 00:20 040 8 5.4 3.0 Light rain.
2015-Mar-30 23:50 060 5 4.3 2.0 Drizzle.
2015-Mar-30 23:20 110 7 5.4 2.0 Drizzle.
2015-Mar-30 22:50 140 11 5.4 3.0 Light rain.
2015-Mar-30 22:20 130 13 5.4 3.0 Light rain.